749  
FPUS82 KCHS 210727  
OPUCHS  
 
TEST   
..KCHS/KSAV GATEWAY OBSERVATIONS
 
TEST  
NATIONAL WEATHER SERVICE CHARLESTON SC  
200 AM EST WED FEB 21 2018  
 
NOTE: "FAIR" INDICATES FEW OR NO CLOUDS BELOW 12,000 FEET WITH NO  
SIGNIFICANT WEATHER AND/OR OBSTRUCTIONS TO VISIBILITY.  
 
SCZ050-WAZ558-NCZ071-TXZ119-213-PAZ071-DCZ001-FLZ074-172-MI076-  
NYZ176-178-MAZ016-IL014-TNZ027-NJZ106-GAZ044-MD014-210800-  
   
..GATEWAY OBSERVATIONS FOR CHARLESTON INTERNATIONAL
 
 
 
CITY SKY/WX TMP DP RH WIND PRES REMARKS  
CHAS AIRPORT FAIR 66 65 96 SE8 30.42S  
SEATTLE CLEAR 30 22 72 N5 30.27R WCI 25  
CHARLOTTE CLOUDY 65 63 93 S8 30.42S  
DALLAS DFW RAIN 39 35 86 N20 30.17R WCI 29  
DALLAS LOVE RAIN 38 36 92 N15 30.17S FOG WCI 29  
PHILLADELPHIA FAIR 57 57 100 S7 30.33S FOG  
WASH NATIONAL MOCLDY 60 57 89 S13 30.34S  
BALTIMORE FAIR 57 56 96 S3 30.32S  
MIAMI FAIR 76 71 85 E18 30.31F  
DETROIT CLOUDY 56 54 93 S5 30.04F  
NEWARK MOCLDY 57 55 93 S5 30.30F  
LAGUARDIA FOG 52 50 93 S8 30.31F VSB<1/4  
J F K FOG 48 48 100 S15 30.33F VSB 1/4  
BOSTON LOGAN FAIR 42 40 92 CALM 30.27F  
FT. LAUDERDALE FAIR 76 72 87 E18 30.31F  
CHICAGO O'HARE LGT RAIN 34 30 85 N12 30.19R WCI 25  
CHICAGO MIDWAY LGT RAIN 34 32 92 N12 30.18S FOG WCI 25  
HOUSTON BUSH CLOUDY 74 70 87 S9 30.09R  
HOUSTON HOBBY CLOUDY 72 72 100 SE7 30.09R  
NASHVILLE MOCLDY 71 62 73 S18G29 30.21R  
ATLANTA LGT RAIN 67 64 90 S9 30.36S  
 

 
 
GAZ044-118-TXZ119-213-NCZ071-DCZ001-MDZ014-506-PAZ021-071-NJZ106-  
NYZ176-178-MAZ106-OHZ011-021-055-MIZ076-KYZ091-ILZ014-INZ047-  
MNZ060-ONZ431-210800-  
   
..GATEWAY OBSERVATIONS FOR SAVANNAH INTERNATIONAL
 
 
 
CITY SKY/WX TMP DP RH WIND PRES REMARKS  
SAVANNAH ARPT FAIR 69 67 93 SE8 30.40S  
ATLANTA LGT RAIN 67 64 90 S9 30.36S  
CHARLOTTE CLOUDY 65 63 93 S8 30.42S  
DALLAS DFW RAIN 39 35 86 N20 30.17R WCI 29  
HOUSTON BUSH CLOUDY 74 70 87 S9 30.09R  
WASH NATIONAL MOCLDY 60 57 89 S13 30.34S  
WASH DULLES FAIR 61 58 90 S9 30.32S  
BALTIMORE FAIR 57 56 96 S3 30.32S  
PHILADELPHIA FAIR 57 57 100 S7 30.33S FOG  
NEWARK MOCLDY 57 55 93 S5 30.30F  
LAGUARDIA FOG 52 50 93 S8 30.31F VSB<1/4  
J F K FOG 48 48 100 S15 30.33F VSB 1/4  
BOSTON FAIR 42 40 92 CALM 30.27F  
PITTSBURG MOCLDY 65 50 58 S3 30.19S  
AKRON FAIR 66 51 58 S18 30.13F  
CLEVELAND MOCLDY 68 54 60 S14 30.10R  
CINCINNATI FAIR 67 59 75 S16G26 30.11S  
COLUMBUS FAIR 64 54 70 S13 30.13S  
DETROIT CLOUDY 56 54 93 S5 30.04F  
CHICAGO O'HARE LGT RAIN 34 30 85 N12 30.19R WCI 25  
MINNEAPOLIS FAIR 8 2 76 W8 30.40R WCI -4  
INDIANAPOLIS LGT RAIN 53 52 96 N13 30.07R  
TORONTO CANADA NOT AVBL  
 

 
 
 
CLICK HERE TO GO TO PREVIOUS BULLETINS.

The Nexlab SC Page
The Nexlab GA Page Main Text Page